METAR AND TAF INFORMATION
METAR FOR HESC
ADDS - METARS form results

(0755 UTC 19 December 2018)
Data provider http://aviationweather.gov/metar/data/
 
METAR text: HESC 190700Z 00000KT CAVOK 11/M02 Q1024 NOSIG
Conditions at: HESC (ST CATHERINE , EG) observed 0700 UTC 19 December 2018
Temperature: 11.0°C (52°F)
Dewpoint: -2.0°C (28°F) [RH = 40%]
Pressure (altimeter): 30.24 inches Hg (1024.0 mb)
Winds: calm
Visibility: 6 or more miles (10+ km)
Ceiling: ceiling and visibility are OK
Clouds: unknown
Weather: no significant weather observed at this time

Forecast for: HESC (ST CATHERINE , EG)
Text: TAF HESC 190500Z 1906/2012 29012KT CAVOK
Forecast period: 0600 UTC 19 December 2018 to 1200 UTC 20 December 2018
Forecast type: FROM: standard forecast or significant change
Winds: from the WNW (290 degrees) at 14 MPH (12 knots; 6.2 m/s)
Visibility: 6 or more miles 10+ km)
Ceiling: unknown
Clouds: missing
Weather: NSW  (no significant weather)

 AIRPORT MAP

Esri Leaflet Quickstart
 RUNWAY INFORMATION
Runway 17 Runway length 6939 ft Runway width 118 ft
Runway elevation 4299 ft Runway displaced threshold 0 ft Runway heading 172
Runway 35 Runway length 6939 ft Runway width 118 ft
Runway elevation 4368 ft Runway displaced threshold 0 ft Runway heading 352

 AIRPORT FREQUENCIES
Type RDO Name Cathrine R Frequency 579 MHZ
Type TWR Name TWR Frequency 122.8 MHZ

 AIRPORT NEAR NAVIGATION AIDS
Type NDB Name St Catherine Frequency 262 KHZ



Powered by Virtual Airlines Manager [v2.6.2]